Time,TemperatureF,DewpointF,PressureIn,WindDirection,WindDirectionDegrees,WindSpeedMPH,WindSpeedGustMPH,Humidity,HourlyPrecipIn,Conditions,Clouds,dailyrainin,SoftwareType,DateUTC
2013-03-19 00:00:00,62.2,47.7,29.88,North,0,0.0,0.0,59,0.00,CLR,FEW,0.00,WeatherDisplay:10.37,2013-03-19 05:00:00,
2013-03-19 00:05:00,61.9,47.4,29.88,North,0,0.0,0.0,59,0.00,CLR,FEW,0.00,WeatherDisplay:10.37,2013-03-19 05:05:00,
2013-03-19 00:10:00,61.5,47.5,29.88,East,90,0.0,0.0,60,0.00,CLR,FEW,0.00,WeatherDisplay:10.37,2013-03-19 05:10:00,
2013-03-19 00:15:00,61.2,47.6,29.88,East,90,0.0,0.0,61,0.00,CLR,FEW,0.00,WeatherDisplay:10.37,2013-03-19 05:15:00,
2013-03-19 00:20:00,61.0,47.9,29.88,East,90,0.0,0.0,62,0.00,CLR,FEW,0.00,WeatherDisplay:10.37,2013-03-19 05:20:00,
2013-03-19 00:25:00,60.6,47.5,29.88,East,90,0.0,0.0,62,0.00,CLR,FEW,0.00,WeatherDisplay:10.37,2013-03-19 05:25:00,
2013-03-19 00:30:00,60.3,47.2,29.88,East,90,0.0,0.0,62,0.00,CLR,FEW,0.00,WeatherDisplay:10.37,2013-03-19 05:30:00,
2013-03-19 00:35:00,60.1,47.4,29.88,East,90,0.0,0.0,63,0.00,CLR,FEW,0.00,WeatherDisplay:10.37,2013-03-19 05:35:00,
2013-03-19 00:40:00,59.9,47.3,29.88,East,90,0.0,0.0,63,0.00,CLR,FEW,0.00,WeatherDisplay:10.37,2013-03-19 05:40:00,
2013-03-19 00:45:00,59.7,47.1,29.88,East,90,0.0,0.0,63,0.00,CLR,FEW,0.00,WeatherDisplay:10.37,2013-03-19 05:45:00,
2013-03-19 00:50:00,59.7,47.5,29.88,East,90,0.0,0.0,64,0.00,CLR,FEW,0.00,WeatherDisplay:10.37,2013-03-19 05:50:00,
2013-03-19 00:55:00,59.5,47.3,29.89,East,90,0.0,0.0,64,0.00,CLR,FEW,0.00,WeatherDisplay:10.37,2013-03-19 05:55:00,
2013-03-19 01:00:00,59.4,47.2,29.89,East,90,0.0,0.0,64,0.00,CLR,FEW,0.00,WeatherDisplay:10.37,2013-03-19 06:00:00,
2013-03-19 01:05:00,59.2,47.4,29.89,East,90,0.0,0.0,65,0.00,CLR,FEW,0.00,WeatherDisplay:10.37,2013-03-19 06:05:00,
2013-03-19 01:10:00,59.0,47.2,29.89,East,90,0.0,0.0,65,0.00,CLR,FEW,0.00,WeatherDisplay:10.37,2013-03-19 06:10:00,
2013-03-19 01:15:00,58.8,47.1,29.88,East,90,0.0,0.0,65,0.00,CLR,FEW,0.00,WeatherDisplay:10.37,2013-03-19 06:15:00,
2013-03-19 01:20:00,58.6,47.3,29.89,East,90,0.0,0.0,66,0.00,CLR,FEW,0.00,WeatherDisplay:10.37,2013-03-19 06:20:00,
2013-03-19 01:25:00,58.5,47.1,29.89,East,90,0.0,0.0,66,0.00,CLR,FEW,0.00,WeatherDisplay:10.37,2013-03-19 06:25:00,
2013-03-19 01:30:00,58.1,47.2,29.89,East,90,0.0,0.0,67,0.00,CLR,FEW,0.00,WeatherDisplay:10.37,2013-03-19 06:30:00,
2013-03-19 01:35:00,57.7,46.9,29.88,East,90,0.0,0.0,67,0.00,CLR,FEW,0.00,WeatherDisplay:10.37,2013-03-19 06:35:00,
2013-03-19 01:40:00,57.6,47.1,29.88,East,90,0.0,0.0,68,0.00,CLR,FEW,0.00,WeatherDisplay:10.37,2013-03-19 06:40:00,
2013-03-19 01:45:00,57.2,47.1,29.89,East,90,0.0,0.0,69,0.00,CLR,FEW,0.00,WeatherDisplay:10.37,2013-03-19 06:45:00,
2013-03-19 01:50:00,57.0,46.9,29.89,East,90,0.0,0.0,69,0.00,CLR,FEW,0.00,WeatherDisplay:10.37,2013-03-19 06:50:00,
2013-03-19 01:55:00,56.8,46.8,29.89,East,90,0.0,0.0,69,0.00,CLR,FEW,0.00,WeatherDisplay:10.37,2013-03-19 06:55:00,
2013-03-19 02:00:00,56.7,47.0,29.89,East,90,0.0,0.0,70,0.00,CLR,FEW,0.00,WeatherDisplay:10.37,2013-03-19 07:00:00,
2013-03-19 02:05:00,56.5,46.8,29.89,East,90,0.0,0.0,70,0.00,CLR,FEW,0.00,WeatherDisplay:10.37,2013-03-19 07:05:00,
2013-03-19 02:10:00,56.3,46.6,29.89,East,90,0.0,0.0,70,0.00,CLR,FEW,0.00,WeatherDisplay:10.37,2013-03-19 07:10:00,
2013-03-19 02:15:00,56.1,46.8,29.88,East,90,0.0,0.0,71,0.00,CLR,FEW,0.00,WeatherDisplay:10.37,2013-03-19 07:15:00,
2013-03-19 02:20:00,55.9,46.7,29.88,East,90,0.0,0.0,71,0.00,CLR,FEW,0.00,WeatherDisplay:10.37,2013-03-19 07:20:00,
2013-03-19 02:25:00,55.9,46.7,29.88,East,90,0.0,0.0,71,0.00,CLR,FEW,0.00,WeatherDisplay:10.37,2013-03-19 07:25:00,
2013-03-19 02:30:00,55.9,46.7,29.89,East,90,0.0,0.0,71,0.00,CLR,FEW,0.00,WeatherDisplay:10.37,2013-03-19 07:30:00,
2013-03-19 02:35:00,55.9,46.7,29.89,East,90,0.0,0.0,71,0.00,CLR,FEW,0.00,WeatherDisplay:10.37,2013-03-19 07:35:00,
2013-03-19 02:40:00,55.9,46.7,29.89,East,90,0.0,0.0,71,0.00,CLR,FEW,0.00,WeatherDisplay:10.37,2013-03-19 07:40:00,
2013-03-19 02:45:00,55.6,46.3,29.89,East,90,0.0,0.0,71,0.00,CLR,FEW,0.00,WeatherDisplay:10.37,2013-03-19 07:45:00,
2013-03-19 02:50:00,55.2,46.3,29.88,East,90,0.0,0.0,72,0.00,CLR,FEW,0.00,WeatherDisplay:10.37,2013-03-19 07:50:00,
2013-03-19 02:55:00,54.9,46.0,29.88,East,90,0.0,0.0,72,0.00,CLR,FEW,0.00,WeatherDisplay:10.37,2013-03-19 07:55:00,
2013-03-19 03:00:00,54.7,46.2,29.88,East,90,0.0,0.0,73,0.00,CLR,FEW,0.00,WeatherDisplay:10.37,2013-03-19 08:00:00,
2013-03-19 03:05:00,54.5,46.4,29.89,East,90,0.0,0.0,74,0.00,CLR,FEW,0.00,WeatherDisplay:10.37,2013-03-19 08:05:00,
2013-03-19 03:10:00,54.3,46.2,29.88,East,90,0.0,0.0,74,0.00,CLR,FEW,0.00,WeatherDisplay:10.37,2013-03-19 08:10:00,
2013-03-19 03:15:00,54.3,46.6,29.89,East,90,0.0,0.0,75,0.00,CLR,FEW,0.00,WeatherDisplay:10.37,2013-03-19 08:15:00,
2013-03-19 03:20:00,54.1,46.4,29.89,East,90,0.0,0.0,75,0.00,CLR,FEW,0.00,WeatherDisplay:10.37,2013-03-19 08:20:00,
2013-03-19 03:25:00,54.0,46.2,29.89,East,90,0.0,0.0,75,0.00,CLR,FEW,0.00,WeatherDisplay:10.37,2013-03-19 08:25:00,
2013-03-19 03:30:00,54.0,46.2,29.89,East,90,0.0,0.0,75,0.00,CLR,FEW,0.00,WeatherDisplay:10.37,2013-03-19 08:30:00,
2013-03-19 03:35:00,54.0,46.6,29.89,East,90,0.0,0.0,76,0.00,CLR,FEW,0.00,WeatherDisplay:10.37,2013-03-19 08:35:00,
2013-03-19 03:40:00,53.8,46.4,29.89,East,90,0.0,0.0,76,0.00,CLR,FEW,0.00,WeatherDisplay:10.37,2013-03-19 08:40:00,
2013-03-19 03:45:00,53.6,46.2,29.88,East,90,0.0,0.0,76,0.00,CLR,FEW,0.00,WeatherDisplay:10.37,2013-03-19 08:45:00,
2013-03-19 03:50:00,53.4,46.0,29.88,East,90,0.0,0.0,76,0.00,CLR,FEW,0.00,WeatherDisplay:10.37,2013-03-19 08:50:00,
2013-03-19 03:55:00,53.1,45.7,29.88,East,90,0.0,0.0,76,0.00,CLR,FEW,0.00,WeatherDisplay:10.37,2013-03-19 08:55:00,
2013-03-19 04:00:00,52.7,45.7,29.88,East,90,0.0,0.0,77,0.00,CLR,FEW,0.00,WeatherDisplay:10.37,2013-03-19 09:00:00,
2013-03-19 04:05:00,52.5,45.5,29.88,East,90,0.0,0.0,77,0.00,CLR,FEW,0.00,WeatherDisplay:10.37,2013-03-19 09:05:00,
2013-03-19 04:10:00,52.3,45.7,29.88,East,90,0.0,0.0,78,0.00,CLR,FEW,0.00,WeatherDisplay:10.37,2013-03-19 09:10:00,
2013-03-19 04:15:00,52.2,45.5,29.88,East,90,0.0,0.0,78,0.00,CLR,FEW,0.00,WeatherDisplay:10.37,2013-03-19 09:15:00,
2013-03-19 04:20:00,52.2,45.8,29.88,East,90,0.0,0.0,79,0.00,CLR,FEW,0.00,WeatherDisplay:10.37,2013-03-19 09:20:00,
2013-03-19 04:25:00,52.2,45.8,29.88,East,90,0.0,0.0,79,0.00,CLR,FEW,0.00,WeatherDisplay:10.37,2013-03-19 09:25:00,
2013-03-19 04:30:00,52.2,45.8,29.88,East,90,0.0,0.0,79,0.00,CLR,FEW,0.00,WeatherDisplay:10.37,2013-03-19 09:30:00,
2013-03-19 04:35:00,52.3,46.0,29.88,East,90,0.0,0.0,79,0.00,CLR,FEW,0.00,WeatherDisplay:10.37,2013-03-19 09:35:00,
2013-03-19 04:40:00,52.3,46.0,29.88,East,90,0.0,0.0,79,0.00,CLR,FEW,0.00,WeatherDisplay:10.37,2013-03-19 09:40:00,
2013-03-19 04:45:00,52.3,45.7,29.88,East,90,0.0,0.0,78,0.00,CLR,FEW,0.00,WeatherDisplay:10.37,2013-03-19 09:45:00,
2013-03-19 04:50:00,52.3,45.7,29.88,East,90,0.0,0.0,78,0.00,CLR,FEW,0.00,WeatherDisplay:10.37,2013-03-19 09:50:00,
2013-03-19 04:55:00,52.3,45.7,29.87,East,90,0.0,0.0,78,0.00,CLR,FEW,0.00,WeatherDisplay:10.37,2013-03-19 09:55:00,
2013-03-19 05:00:00,52.2,45.5,29.88,East,90,0.0,0.0,78,0.00,CLR,FEW,0.00,WeatherDisplay:10.37,2013-03-19 10:00:00,
2013-03-19 05:05:00,51.8,45.2,29.88,East,90,0.0,0.0,78,0.00,CLR,FEW,0.00,WeatherDisplay:10.37,2013-03-19 10:05:00,
2013-03-19 05:10:00,51.4,45.1,29.88,East,90,0.0,0.0,79,0.00,CLR,FEW,0.00,WeatherDisplay:10.37,2013-03-19 10:10:00,
2013-03-19 05:15:00,51.3,45.0,29.88,East,90,0.0,0.0,79,0.00,CLR,FEW,0.00,WeatherDisplay:10.37,2013-03-19 10:15:00,
2013-03-19 05:20:00,51.1,45.1,29.88,East,90,0.0,0.0,80,0.00,CLR,FEW,0.00,WeatherDisplay:10.37,2013-03-19 10:20:00,
2013-03-19 05:25:00,50.9,45.3,29.88,East,90,0.0,0.0,81,0.00,CLR,FEW,0.00,WeatherDisplay:10.37,2013-03-19 10:25:00,
2013-03-19 05:30:00,50.7,45.4,29.88,East,90,0.0,0.0,82,0.00,CLR,FEW,0.00,WeatherDisplay:10.37,2013-03-19 10:30:00,
2013-03-19 05:35:00,50.7,45.4,29.88,East,90,0.0,0.0,82,0.00,CLR,FEW,0.00,WeatherDisplay:10.37,2013-03-19 10:35:00,
2013-03-19 05:40:00,50.5,45.2,29.88,East,90,0.0,0.0,82,0.00,CLR,FEW,0.00,WeatherDisplay:10.37,2013-03-19 10:40:00,
2013-03-19 05:45:00,50.4,45.4,29.89,East,90,0.0,0.0,83,0.00,CLR,FEW,0.00,WeatherDisplay:10.37,2013-03-19 10:45:00,
2013-03-19 05:50:00,50.4,45.7,29.89,East,90,0.0,0.0,84,0.00,CLR,FEW,0.00,WeatherDisplay:10.37,2013-03-19 10:50:00,
2013-03-19 05:55:00,50.4,46.0,29.89,East,90,0.0,0.0,85,0.00,CLR,FEW,0.00,WeatherDisplay:10.37,2013-03-19 10:55:00,
2013-03-19 06:00:00,50.4,46.0,29.90,East,90,0.0,0.0,85,0.00,CLR,FEW,0.00,WeatherDisplay:10.37,2013-03-19 11:00:00,
2013-03-19 06:05:00,50.2,46.2,29.89,East,90,0.0,0.0,86,0.00,CLR,FEW,0.00,WeatherDisplay:10.37,2013-03-19 11:05:00,
2013-03-19 06:10:00,50.2,46.2,29.89,East,90,0.0,0.0,86,0.00,CLR,FEW,0.00,WeatherDisplay:10.37,2013-03-19 11:10:00,
2013-03-19 06:15:00,50.0,46.0,29.89,East,90,0.0,0.0,86,0.00,CLR,FEW,0.00,WeatherDisplay:10.37,2013-03-19 11:15:00,
2013-03-19 06:20:00,50.0,46.3,29.89,East,90,0.0,0.0,87,0.00,CLR,FEW,0.00,WeatherDisplay:10.37,2013-03-19 11:20:00,
2013-03-19 06:25:00,50.0,46.3,29.89,East,90,0.0,0.0,87,0.00,CLR,FEW,0.00,WeatherDisplay:10.37,2013-03-19 11:25:00,
2013-03-19 06:30:00,49.8,46.1,29.89,East,90,0.0,0.0,87,0.00,CLR,FEW,0.00,WeatherDisplay:10.37,2013-03-19 11:30:00,
2013-03-19 06:35:00,49.6,45.9,29.90,East,90,0.0,0.0,87,0.00,CLR,FEW,0.00,WeatherDisplay:10.37,2013-03-19 11:35:00,
2013-03-19 06:40:00,49.6,46.2,29.90,East,90,0.0,0.0,88,0.00,CLR,FEW,0.00,WeatherDisplay:10.37,2013-03-19 11:40:00,
2013-03-19 06:45:00,49.6,46.5,29.90,East,90,0.0,0.0,89,0.00,CLR,FEW,0.00,WeatherDisplay:10.37,2013-03-19 11:45:00,
2013-03-19 06:50:00,49.5,46.4,29.90,East,90,0.0,0.0,89,0.00,CLR,FEW,0.00,WeatherDisplay:10.37,2013-03-19 11:50:00,
2013-03-19 06:55:00,49.5,46.4,29.90,East,90,0.0,0.0,89,0.00,CLR,FEW,0.00,WeatherDisplay:10.37,2013-03-19 11:55:00,
2013-03-19 07:00:00,49.1,46.0,29.90,East,90,0.0,0.0,89,0.00,CLR,FEW,0.00,WeatherDisplay:10.37,2013-03-19 12:00:00,
2013-03-19 07:05:00,48.9,45.8,29.91,East,90,0.0,0.0,89,0.00,CLR,FEW,0.00,WeatherDisplay:10.37,2013-03-19 12:05:00,
2013-03-19 07:10:00,48.7,45.6,29.91,East,90,0.0,0.0,89,0.00,CLR,FEW,0.00,WeatherDisplay:10.37,2013-03-19 12:10:00,
2013-03-19 07:15:00,48.6,45.5,29.91,East,90,0.0,0.0,89,0.00,CLR,FEW,0.00,WeatherDisplay:10.37,2013-03-19 12:15:00,
2013-03-19 07:20:00,48.4,45.3,29.90,East,90,0.0,0.0,89,0.00,CLR,FEW,0.00,WeatherDisplay:10.37,2013-03-19 12:20:00,
2013-03-19 07:25:00,48.0,44.9,29.90,East,90,0.0,0.0,89,0.00,CLR,FEW,0.00,WeatherDisplay:10.37,2013-03-19 12:25:00,
2013-03-19 07:30:00,47.8,44.8,29.91,East,90,0.0,0.0,89,0.00,CLR,FEW,0.00,WeatherDisplay:10.37,2013-03-19 12:30:00,
2013-03-19 07:35:00,47.7,44.6,29.90,East,90,0.0,0.0,89,0.00,CLR,FEW,0.00,WeatherDisplay:10.37,2013-03-19 12:35:00,
2013-03-19 07:40:00,47.5,44.4,29.91,East,90,0.0,0.0,89,0.00,CLR,FEW,0.00,WeatherDisplay:10.37,2013-03-19 12:40:00,
2013-03-19 07:45:00,47.3,44.5,29.91,East,90,0.0,0.0,90,0.00,CLR,FEW,0.00,WeatherDisplay:10.37,2013-03-19 12:45:00,
2013-03-19 07:50:00,47.3,44.5,29.91,East,90,0.0,0.0,90,0.00,CLR,FEW,0.00,WeatherDisplay:10.37,2013-03-19 12:50:00,
2013-03-19 07:55:00,47.3,44.5,29.91,East,90,0.0,0.0,90,0.00,CLR,FEW,0.00,WeatherDisplay:10.37,2013-03-19 12:55:00,
2013-03-19 08:00:00,47.3,44.5,29.91,East,90,0.0,0.0,90,0.00,CLR,FEW,0.00,WeatherDisplay:10.37,2013-03-19 13:00:00,
2013-03-19 08:05:00,47.5,45.0,29.91,East,90,0.0,0.0,91,0.00,CLR,FEW,0.00,WeatherDisplay:10.37,2013-03-19 13:05:00,
2013-03-19 08:10:00,47.8,45.3,29.91,East,90,0.0,0.0,91,0.00,CLR,FEW,0.00,WeatherDisplay:10.37,2013-03-19 13:10:00,
2013-03-19 08:15:00,48.0,45.5,29.91,East,90,0.0,0.0,91,0.00,CLR,FEW,0.00,WeatherDisplay:10.37,2013-03-19 13:15:00,
2013-03-19 08:20:00,48.4,45.9,29.91,East,90,0.0,0.0,91,0.00,CLR,FEW,0.00,WeatherDisplay:10.37,2013-03-19 13:20:00,
2013-03-19 08:25:00,48.9,46.4,29.91,East,90,0.0,0.0,91,0.00,CLR,FEW,0.00,WeatherDisplay:10.37,2013-03-19 13:25:00,
2013-03-19 08:30:00,49.3,46.8,29.91,East,90,0.0,0.0,91,0.00,CLR,FEW,0.00,WeatherDisplay:10.37,2013-03-19 13:30:00,
2013-03-19 08:35:00,50.0,47.5,29.91,East,90,0.0,0.0,91,0.00,CLR,FEW,0.00,WeatherDisplay:10.37,2013-03-19 13:35:00,
2013-03-19 08:40:00,50.4,47.8,29.91,East,90,0.0,0.0,91,0.00,CLR,FEW,0.00,WeatherDisplay:10.37,2013-03-19 13:40:00,
2013-03-19 08:45:00,51.1,48.5,29.92,East,90,0.0,0.0,91,0.00,CLR,FEW,0.00,WeatherDisplay:10.37,2013-03-19 13:45:00,
2013-03-19 08:50:00,51.4,48.9,29.92,West,270,0.0,0.0,91,0.00,CLR,FEW,0.00,WeatherDisplay:10.37,2013-03-19 13:50:00,
2013-03-19 08:55:00,52.2,49.9,29.92,West,270,0.0,0.0,92,0.00,CLR,FEW,0.00,WeatherDisplay:10.37,2013-03-19 13:55:00,
2013-03-19 09:00:00,52.7,50.1,29.92,West,270,0.0,0.0,91,0.00,CLR,FEW,0.00,WeatherDisplay:10.37,2013-03-19 14:00:00,
2013-03-19 09:05:00,53.2,50.4,29.92,West,270,0.0,0.0,90,0.00,CLR,FEW,0.00,WeatherDisplay:10.37,2013-03-19 14:05:00,
2013-03-19 09:10:00,53.4,50.6,29.92,NW,315,0.0,0.0,90,0.00,CLR,FEW,0.00,WeatherDisplay:10.37,2013-03-19 14:10:00,
2013-03-19 09:15:00,54.0,50.8,29.92,NW,315,0.0,0.0,89,0.00,CLR,FEW,0.00,WeatherDisplay:10.37,2013-03-19 14:15:00,
2013-03-19 09:20:00,54.3,50.8,29.92,NW,315,0.0,0.0,88,0.00,CLR,FEW,0.00,WeatherDisplay:10.37,2013-03-19 14:20:00,
2013-03-19 09:25:00,54.7,50.9,29.92,West,270,0.0,0.0,87,0.00,CLR,FEW,0.00,WeatherDisplay:10.37,2013-03-19 14:25:00,
2013-03-19 09:30:00,55.0,51.2,29.92,West,270,0.0,0.0,87,0.00,CLR,FEW,0.00,WeatherDisplay:10.37,2013-03-19 14:30:00,
2013-03-19 09:35:00,55.4,51.3,29.93,SW,225,0.0,0.0,86,0.00,CLR,FEW,0.00,WeatherDisplay:10.37,2013-03-19 14:35:00,
2013-03-19 09:40:00,55.8,51.3,29.93,NW,315,1.2,0.0,85,0.00,CLR,FEW,0.00,WeatherDisplay:10.37,2013-03-19 14:40:00,
2013-03-19 09:45:00,56.1,51.0,29.93,NW,315,1.6,1.6,83,0.00,CLR,FEW,0.00,WeatherDisplay:10.37,2013-03-19 14:45:00,
2013-03-19 09:51:00,56.7,50.9,29.93,North,0,3.5,3.5,81,0.00,CLR,FEW,0.00,WeatherDisplay:10.37,2013-03-19 14:51:00,
2013-03-19 09:57:00,57.4,51.3,29.93,North,0,2.3,2.3,80,0.00,CLR,FEW,0.00,WeatherDisplay:10.37,2013-03-19 14:57:00,
2013-03-19 10:02:00,58.1,50.9,29.93,North,0,2.3,2.3,77,0.00,CLR,FEW,0.00,WeatherDisplay:10.37,2013-03-19 15:02:00,
2013-03-19 10:07:00,59.0,51.4,29.94,North,0,2.3,2.3,76,0.00,CLR,FEW,0.00,WeatherDisplay:10.37,2013-03-19 15:07:00,
2013-03-19 10:12:00,59.7,51.4,29.94,NE,45,2.3,0.0,74,0.00,CLR,FEW,0.00,WeatherDisplay:10.37,2013-03-19 15:12:00,
2013-03-19 10:17:00,60.6,50.8,29.94,NE,45,2.3,2.3,70,0.00,CLR,FEW,0.00,WeatherDisplay:10.37,2013-03-19 15:17:00,
2013-03-19 10:22:00,61.3,52.2,29.94,NE,45,1.6,0.0,72,0.00,CLR,FEW,0.00,WeatherDisplay:10.37,2013-03-19 15:22:00,
2013-03-19 10:27:00,62.4,52.9,29.93,SE,135,1.2,0.0,71,0.00,CLR,FEW,0.00,WeatherDisplay:10.37,2013-03-19 15:27:00,
2013-03-19 10:32:00,63.5,53.5,29.93,East,90,1.2,0.0,70,0.00,CLR,FEW,0.00,WeatherDisplay:10.37,2013-03-19 15:32:00,
2013-03-19 10:37:00,64.4,53.6,29.93,SE,135,1.2,0.0,68,0.00,CLR,FEW,0.00,WeatherDisplay:10.37,2013-03-19 15:37:00,
2013-03-19 10:42:00,65.3,53.6,29.93,NE,45,2.2,0.0,66,0.00,CLR,FEW,0.00,WeatherDisplay:10.37,2013-03-19 15:42:00,
2013-03-19 10:47:00,66.0,53.1,29.93,NE,45,1.2,0.0,63,0.00,CLR,FEW,0.00,WeatherDisplay:10.37,2013-03-19 15:47:00,
2013-03-19 10:52:00,66.4,53.4,29.92,West,270,2.3,0.0,63,0.00,CLR,FEW,0.00,WeatherDisplay:10.37,2013-03-19 15:52:00,
2013-03-19 10:57:00,67.1,53.6,29.92,East,90,1.2,0.0,62,0.00,CLR,FEW,0.00,WeatherDisplay:10.37,2013-03-19 15:57:00,
2013-03-19 11:02:00,68.4,55.7,29.92,SE,135,1.6,0.0,64,0.00,CLR,FEW,0.00,WeatherDisplay:10.37,2013-03-19 16:02:00,
2013-03-19 11:07:00,69.1,55.5,29.92,NE,45,2.3,0.0,62,0.00,CLR,FEW,0.00,WeatherDisplay:10.37,2013-03-19 16:07:00,
2013-03-19 11:12:00,69.6,55.1,29.92,East,90,1.2,0.0,60,0.00,CLR,FEW,0.00,WeatherDisplay:10.37,2013-03-19 16:12:00,
2013-03-19 11:17:00,70.3,54.9,29.92,NE,45,1.2,0.0,58,0.00,CLR,FEW,0.00,WeatherDisplay:10.37,2013-03-19 16:17:00,
2013-03-19 11:22:00,70.7,55.2,29.92,West,270,2.3,0.0,58,0.00,CLR,FEW,0.00,WeatherDisplay:10.37,2013-03-19 16:22:00,
2013-03-19 11:27:00,71.4,55.9,29.92,North,0,3.5,0.0,58,0.00,CLR,FEW,0.00,WeatherDisplay:10.37,2013-03-19 16:27:00,
2013-03-19 11:32:00,72.0,55.9,29.92,NW,315,1.6,0.0,57,0.00,CLR,FEW,0.00,WeatherDisplay:10.37,2013-03-19 16:32:00,
2013-03-19 11:37:00,72.5,56.4,29.91,NE,45,2.3,0.0,57,0.00,CLR,FEW,0.00,WeatherDisplay:10.37,2013-03-19 16:37:00,
2013-03-19 11:42:00,73.2,57.1,29.91,South,180,1.2,0.0,57,0.00,CLR,FEW,0.00,WeatherDisplay:10.37,2013-03-19 16:42:00,
2013-03-19 11:47:00,73.9,57.7,29.91,SE,135,1.2,0.0,57,0.00,CLR,FEW,0.00,WeatherDisplay:10.37,2013-03-19 16:47:00,
2013-03-19 11:52:00,74.7,57.9,29.91,SE,135,2.3,0.0,56,0.00,CLR,FEW,0.00,WeatherDisplay:10.37,2013-03-19 16:52:00,
2013-03-19 11:57:00,75.2,58.4,29.91,ESE,112,1.2,0.0,56,0.00,CLR,FEW,0.00,WeatherDisplay:10.37,2013-03-19 16:57:00,
2013-03-19 12:02:00,75.0,58.3,29.90,West,270,1.6,0.0,56,0.00,CLR,FEW,0.00,WeatherDisplay:10.37,2013-03-19 17:02:00,
2013-03-19 12:07:00,75.2,58.9,29.90,East,90,1.2,0.0,57,0.00,CLR,FEW,0.00,WeatherDisplay:10.37,2013-03-19 17:07:00,
2013-03-19 12:12:00,76.1,59.3,29.90,SE,135,3.5,0.0,56,0.00,CLR,FEW,0.00,WeatherDisplay:10.37,2013-03-19 17:12:00,
2013-03-19 12:17:00,76.6,59.3,29.90,SE,135,2.3,2.3,55,0.00,CLR,FEW,0.00,WeatherDisplay:10.37,2013-03-19 17:17:00,
2013-03-19 12:22:00,77.4,58.9,29.89,West,270,2.3,0.0,53,0.00,CLR,FEW,0.00,WeatherDisplay:10.37,2013-03-19 17:22:00,
2013-03-19 12:27:00,77.7,59.7,29.89,East,90,2.3,0.0,54,0.00,CLR,FEW,0.00,WeatherDisplay:10.37,2013-03-19 17:27:00,
2013-03-19 12:32:00,78.3,59.7,29.88,SE,135,2.3,2.3,53,0.00,CLR,FEW,0.00,WeatherDisplay:10.37,2013-03-19 17:32:00,
2013-03-19 12:37:00,78.8,60.2,29.88,East,90,2.3,0.0,53,0.00,CLR,FEW,0.00,WeatherDisplay:10.37,2013-03-19 17:37:00,
2013-03-19 12:42:00,79.2,60.0,29.88,SE,135,2.3,0.0,52,0.00,CLR,FEW,0.00,WeatherDisplay:10.37,2013-03-19 17:42:00,
2013-03-19 12:47:00,79.5,60.4,29.88,East,90,1.2,0.0,52,0.00,CLR,FEW,0.00,WeatherDisplay:10.37,2013-03-19 17:47:00,
2013-03-19 12:52:00,79.7,60.0,29.88,SE,135,1.6,0.0,51,0.00,CLR,FEW,0.00,WeatherDisplay:10.37,2013-03-19 17:52:00,
2013-03-19 12:57:00,80.2,61.0,29.87,SE,135,1.2,0.0,52,0.00,CLR,FEW,0.00,WeatherDisplay:10.37,2013-03-19 17:57:00,
2013-03-19 13:02:00,81.0,61.1,29.87,SSE,158,1.6,0.0,51,0.00,CLR,FEW,0.00,WeatherDisplay:10.37,2013-03-19 18:02:00,
2013-03-19 13:07:00,81.3,60.9,29.87,East,90,1.2,1.2,50,0.00,CLR,FEW,0.00,WeatherDisplay:10.37,2013-03-19 18:07:00,
2013-03-19 13:12:00,81.3,60.3,29.86,North,0,1.2,0.0,49,0.00,CLR,FEW,0.00,WeatherDisplay:10.37,2013-03-19 18:12:00,
2013-03-19 13:17:00,81.0,60.0,29.86,NW,315,2.3,2.3,49,0.00,CLR,FEW,0.00,WeatherDisplay:10.37,2013-03-19 18:17:00,
2013-03-19 13:22:00,81.3,60.9,29.86,SE,135,1.6,1.6,50,0.00,CLR,FEW,0.00,WeatherDisplay:10.37,2013-03-19 18:22:00,
2013-03-19 13:27:00,81.9,60.8,29.86,SE,135,2.3,2.3,49,0.00,CLR,FEW,0.00,WeatherDisplay:10.37,2013-03-19 18:27:00,
2013-03-19 13:32:00,82.2,60.0,29.85,SE,135,1.6,0.0,47,0.00,CLR,FEW,0.00,WeatherDisplay:10.37,2013-03-19 18:32:00,
2013-03-19 13:37:00,82.9,60.0,29.85,East,90,2.3,2.3,46,0.00,CLR,FEW,0.00,WeatherDisplay:10.37,2013-03-19 18:37:00,
2013-03-19 13:42:00,83.8,59.6,29.84,SE,135,2.3,2.3,44,0.00,CLR,FEW,0.00,WeatherDisplay:10.37,2013-03-19 18:42:00,
2013-03-19 13:48:00,84.0,58.5,29.84,ENE,68,3.1,0.0,42,0.00,CLR,FEW,0.00,WeatherDisplay:10.37,2013-03-19 18:48:00,
2013-03-19 13:53:00,83.8,59.6,29.84,North,0,2.3,0.0,44,0.00,CLR,FEW,0.00,WeatherDisplay:10.37,2013-03-19 18:53:00,
2013-03-19 13:58:00,84.0,59.1,29.84,SE,135,2.3,0.0,43,0.00,CLR,FEW,0.00,WeatherDisplay:10.37,2013-03-19 18:58:00,
2013-03-19 14:03:00,84.4,58.8,29.83,NW,315,1.2,0.0,42,0.00,CLR,FEW,0.00,WeatherDisplay:10.37,2013-03-19 19:03:00,
2013-03-19 14:08:00,84.6,58.3,29.83,SE,135,2.2,2.2,41,0.00,CLR,FEW,0.00,WeatherDisplay:10.37,2013-03-19 19:08:00,
2013-03-19 14:13:00,85.1,58.8,29.83,North,0,1.2,0.0,41,0.00,CLR,FEW,0.00,WeatherDisplay:10.37,2013-03-19 19:13:00,
2013-03-19 14:18:00,85.3,58.9,29.81,East,90,2.3,2.3,41,0.00,CLR,FEW,0.00,WeatherDisplay:10.37,2013-03-19 19:18:00,
2013-03-19 14:23:00,85.3,58.9,29.81,SE,135,2.3,2.3,41,0.00,CLR,FEW,0.00,WeatherDisplay:10.37,2013-03-19 19:23:00,
2013-03-19 14:28:00,85.3,58.9,29.81,East,90,3.1,3.1,41,0.00,CLR,FEW,0.00,WeatherDisplay:10.37,2013-03-19 19:28:00,
2013-03-19 14:33:00,85.6,58.5,29.81,SE,135,2.3,2.3,40,0.00,CLR,FEW,0.00,WeatherDisplay:10.37,2013-03-19 19:33:00,
2013-03-19 14:38:00,85.8,59.4,29.80,South,180,1.2,0.0,41,0.00,CLR,FEW,0.00,WeatherDisplay:10.37,2013-03-19 19:38:00,
2013-03-19 14:43:00,85.6,59.2,29.80,WSW,248,1.2,0.0,41,0.00,CLR,FEW,0.00,WeatherDisplay:10.37,2013-03-19 19:43:00,
2013-03-19 14:48:00,85.6,59.2,29.79,East,90,3.5,3.5,41,0.00,CLR,FEW,0.00,WeatherDisplay:10.37,2013-03-19 19:48:00,
2013-03-19 14:53:00,85.8,59.4,29.78,North,0,3.1,0.0,41,0.00,CLR,FEW,0.00,WeatherDisplay:10.37,2013-03-19 19:53:00,
2013-03-19 14:58:00,86.2,57.6,29.78,East,90,3.1,0.0,38,0.00,CLR,FEW,0.00,WeatherDisplay:10.37,2013-03-19 19:58:00,
2013-03-19 15:03:00,86.4,57.0,29.77,NE,45,2.3,0.0,37,0.00,CLR,FEW,0.00,WeatherDisplay:10.37,2013-03-19 20:03:00,
2013-03-19 15:08:00,86.9,56.7,29.77,East,90,3.5,3.5,36,0.00,CLR,FEW,0.00,WeatherDisplay:10.37,2013-03-19 20:08:00,
2013-03-19 15:13:00,86.9,56.7,29.77,North,0,1.2,1.2,36,0.00,CLR,FEW,0.00,WeatherDisplay:10.37,2013-03-19 20:13:00,
2013-03-19 15:18:00,86.5,57.9,29.77,SSW,202,2.3,2.3,38,0.00,CLR,FEW,0.00,WeatherDisplay:10.37,2013-03-19 20:18:00,
2013-03-19 15:23:00,86.5,57.2,29.76,North,0,3.5,0.0,37,0.00,CLR,FEW,0.00,WeatherDisplay:10.37,2013-03-19 20:23:00,
2013-03-19 15:28:00,86.4,57.0,29.76,East,90,3.1,3.1,37,0.00,CLR,FEW,0.00,WeatherDisplay:10.37,2013-03-19 20:28:00,
2013-03-19 15:33:00,86.7,57.3,29.76,NE,45,2.3,0.0,37,0.00,CLR,FEW,0.00,WeatherDisplay:10.37,2013-03-19 20:33:00,
2013-03-19 15:38:00,86.9,56.7,29.75,East,90,3.1,3.1,36,0.00,CLR,FEW,0.00,WeatherDisplay:10.37,2013-03-19 20:38:00,
2013-03-19 15:43:00,86.9,56.0,29.75,NW,315,2.3,0.0,35,0.00,CLR,FEW,0.00,WeatherDisplay:10.37,2013-03-19 20:43:00,
2013-03-19 15:48:00,87.1,56.1,29.75,North,0,2.3,0.0,35,0.00,CLR,FEW,0.00,WeatherDisplay:10.37,2013-03-19 20:48:00,
2013-03-19 15:53:00,86.9,57.5,29.75,West,270,1.2,0.0,37,0.00,CLR,FEW,0.00,WeatherDisplay:10.37,2013-03-19 20:53:00,
2013-03-19 15:58:00,87.3,57.0,29.75,East,90,3.1,3.1,36,0.00,CLR,FEW,0.00,WeatherDisplay:10.37,2013-03-19 20:58:00,
2013-03-19 16:03:00,87.4,56.4,29.75,East,90,2.3,2.3,35,0.00,CLR,FEW,0.00,WeatherDisplay:10.37,2013-03-19 21:03:00,
2013-03-19 16:08:00,87.4,57.2,29.75,East,90,2.3,0.0,36,0.00,CLR,FEW,0.00,WeatherDisplay:10.37,2013-03-19 21:08:00,
2013-03-19 16:13:00,87.4,57.2,29.74,North,0,1.2,0.0,36,0.00,CLR,FEW,0.00,WeatherDisplay:10.37,2013-03-19 21:13:00,
2013-03-19 16:18:00,87.6,57.4,29.74,East,90,3.5,0.0,36,0.00,CLR,FEW,0.00,WeatherDisplay:10.37,2013-03-19 21:18:00,
2013-03-19 16:23:00,87.4,57.2,29.74,West,270,1.2,0.0,36,0.00,CLR,FEW,0.00,WeatherDisplay:10.37,2013-03-19 21:23:00,
2013-03-19 16:28:00,87.1,56.9,29.74,NE,45,0.0,0.0,36,0.00,CLR,FEW,0.00,WeatherDisplay:10.37,2013-03-19 21:28:00,
2013-03-19 16:33:00,87.1,56.9,29.74,SE,135,0.0,0.0,36,0.00,CLR,FEW,0.00,WeatherDisplay:10.37,2013-03-19 21:33:00,
2013-03-19 16:39:00,87.1,56.9,29.74,East,90,1.2,1.2,36,0.00,CLR,FEW,0.00,WeatherDisplay:10.37,2013-03-19 21:39:00,
2013-03-19 16:44:00,86.7,56.6,29.74,East,90,2.3,0.0,36,0.00,CLR,FEW,0.00,WeatherDisplay:10.37,2013-03-19 21:44:00,
2013-03-19 16:49:00,86.5,57.2,29.74,NE,45,1.2,0.0,37,0.00,CLR,FEW,0.00,WeatherDisplay:10.37,2013-03-19 21:49:00,
2013-03-19 16:54:00,86.5,57.2,29.74,SE,135,1.2,1.2,37,0.00,CLR,FEW,0.00,WeatherDisplay:10.37,2013-03-19 21:54:00,
2013-03-19 16:59:00,86.7,57.3,29.74,NW,315,1.6,0.0,37,0.00,CLR,FEW,0.00,WeatherDisplay:10.37,2013-03-19 21:59:00,
2013-03-19 17:04:00,86.7,56.6,29.74,NE,45,1.2,0.0,36,0.00,CLR,FEW,0.00,WeatherDisplay:10.37,2013-03-19 22:04:00,
2013-03-19 17:09:00,86.9,56.0,29.74,South,180,2.2,2.2,35,0.00,CLR,FEW,0.00,WeatherDisplay:10.37,2013-03-19 22:09:00,
2013-03-19 17:14:00,86.9,56.7,29.73,SE,135,1.2,0.0,36,0.00,CLR,FEW,0.00,WeatherDisplay:10.37,2013-03-19 22:14:00,
2013-03-19 17:19:00,86.7,57.3,29.73,North,0,1.2,0.0,37,0.00,CLR,FEW,0.00,WeatherDisplay:10.37,2013-03-19 22:19:00,
2013-03-19 17:24:00,86.4,57.8,29.74,East,90,0.0,0.0,38,0.00,CLR,FEW,0.00,WeatherDisplay:10.37,2013-03-19 22:24:00,
2013-03-19 17:29:00,86.4,57.8,29.73,ESE,112,1.2,0.0,38,0.00,CLR,FEW,0.00,WeatherDisplay:10.37,2013-03-19 22:29:00,
2013-03-19 17:34:00,86.5,57.2,29.73,SSW,202,1.2,0.0,37,0.00,CLR,FEW,0.00,WeatherDisplay:10.37,2013-03-19 22:34:00,
2013-03-19 17:39:00,86.4,57.0,29.73,East,90,1.6,1.6,37,0.00,CLR,FEW,0.00,WeatherDisplay:10.37,2013-03-19 22:39:00,
2013-03-19 17:44:00,86.2,57.6,29.73,East,90,1.2,0.0,38,0.00,CLR,FEW,0.00,WeatherDisplay:10.37,2013-03-19 22:44:00,
2013-03-19 17:49:00,86.0,57.4,29.73,East,90,1.2,0.0,38,0.00,CLR,FEW,0.00,WeatherDisplay:10.37,2013-03-19 22:49:00,
2013-03-19 17:54:00,85.8,58.0,29.73,SE,135,2.3,0.0,39,0.00,CLR,FEW,0.00,WeatherDisplay:10.37,2013-03-19 22:54:00,
2013-03-19 17:59:00,85.6,57.8,29.73,SE,135,1.6,0.0,39,0.00,CLR,FEW,0.00,WeatherDisplay:10.37,2013-03-19 22:59:00,
2013-03-19 18:04:00,85.3,57.5,29.73,East,90,1.2,0.0,39,0.00,CLR,FEW,0.00,WeatherDisplay:10.37,2013-03-19 23:04:00,
2013-03-19 18:09:00,85.1,57.4,29.73,East,90,1.2,0.0,39,0.00,CLR,FEW,0.00,WeatherDisplay:10.37,2013-03-19 23:09:00,
2013-03-19 18:14:00,84.7,57.0,29.73,SE,135,1.2,0.0,39,0.00,CLR,FEW,0.00,WeatherDisplay:10.37,2013-03-19 23:14:00,
2013-03-19 18:19:00,84.4,57.4,29.73,SE,135,2.3,0.0,40,0.00,CLR,FEW,0.00,WeatherDisplay:10.37,2013-03-19 23:19:00,
2013-03-19 18:24:00,84.2,57.9,29.73,SE,135,1.2,0.0,41,0.00,CLR,FEW,0.00,WeatherDisplay:10.37,2013-03-19 23:24:00,
2013-03-19 18:29:00,84.2,57.9,29.73,SE,135,0.0,0.0,41,0.00,CLR,FEW,0.00,WeatherDisplay:10.37,2013-03-19 23:29:00,
2013-03-19 18:34:00,83.8,58.3,29.73,East,90,2.3,0.0,42,0.00,CLR,FEW,0.00,WeatherDisplay:10.37,2013-03-19 23:34:00,
2013-03-19 18:39:00,83.5,59.9,29.74,SE,135,2.3,2.3,45,0.00,CLR,FEW,0.00,WeatherDisplay:10.37,2013-03-19 23:39:00,
2013-03-19 18:44:00,83.1,60.8,29.73,East,90,1.2,0.0,47,0.00,CLR,FEW,0.00,WeatherDisplay:10.37,2013-03-19 23:44:00,
2013-03-19 18:49:00,82.6,61.5,29.73,SE,135,1.6,0.0,49,0.00,CLR,FEW,0.00,WeatherDisplay:10.37,2013-03-19 23:49:00,
2013-03-19 18:54:00,82.0,61.6,29.74,South,180,1.2,1.2,50,0.00,CLR,FEW,0.00,WeatherDisplay:10.37,2013-03-19 23:54:00,
2013-03-19 18:59:00,81.7,62.3,29.74,SE,135,1.2,0.0,52,0.00,CLR,FEW,0.00,WeatherDisplay:10.37,2013-03-19 23:59:00,
2013-03-19 19:04:00,81.3,62.6,29.75,SE,135,1.2,0.0,53,0.00,CLR,FEW,0.00,WeatherDisplay:10.37,2013-03-20 00:04:00,
2013-03-19 19:09:00,80.8,62.6,29.75,East,90,3.5,3.5,54,0.00,CLR,FEW,0.00,WeatherDisplay:10.37,2013-03-20 00:09:00,
2013-03-19 19:14:00,80.4,62.8,29.75,NE,45,4.6,4.6,55,0.00,CLR,FEW,0.00,WeatherDisplay:10.37,2013-03-20 00:14:00,
2013-03-19 19:19:00,80.1,62.4,29.75,NE,45,3.5,0.0,55,0.00,CLR,FEW,0.00,WeatherDisplay:10.37,2013-03-20 00:19:00,
2013-03-19 19:24:00,79.7,63.1,29.75,SE,135,2.3,2.3,57,0.00,CLR,FEW,0.00,WeatherDisplay:10.37,2013-03-20 00:24:00,
2013-03-19 19:29:00,79.3,63.3,29.75,SE,135,3.5,3.5,58,0.00,CLR,FEW,0.00,WeatherDisplay:10.37,2013-03-20 00:29:00,
2013-03-19 19:34:00,79.2,63.6,29.75,SE,135,3.5,0.0,59,0.00,CLR,FEW,0.00,WeatherDisplay:10.37,2013-03-20 00:34:00,
2013-03-19 19:39:00,78.8,63.7,29.75,East,90,3.5,3.5,60,0.00,CLR,FEW,0.00,WeatherDisplay:10.37,2013-03-20 00:39:00,
2013-03-19 19:44:00,78.4,63.9,29.76,East,90,3.5,3.5,61,0.00,CLR,FEW,0.00,WeatherDisplay:10.37,2013-03-20 00:44:00,
2013-03-19 19:49:00,78.1,64.0,29.76,East,90,3.5,3.5,62,0.00,CLR,FEW,0.00,WeatherDisplay:10.37,2013-03-20 00:49:00,
2013-03-19 19:54:00,78.1,64.0,29.76,SE,135,1.2,0.0,62,0.00,CLR,FEW,0.00,WeatherDisplay:10.37,2013-03-20 00:54:00,
2013-03-19 19:59:00,77.7,64.1,29.77,SE,135,2.2,2.2,63,0.00,CLR,FEW,0.00,WeatherDisplay:10.37,2013-03-20 00:59:00,
2013-03-19 20:04:00,77.5,63.5,29.78,NE,45,1.2,0.0,62,0.00,CLR,FEW,0.00,WeatherDisplay:10.37,2013-03-20 01:04:00,
2013-03-19 20:09:00,77.0,61.1,29.78,East,90,2.3,2.3,58,0.00,CLR,FEW,0.00,WeatherDisplay:10.37,2013-03-20 01:09:00,
2013-03-19 20:14:00,76.5,60.6,29.78,SSE,158,3.5,3.5,58,0.00,CLR,FEW,0.00,WeatherDisplay:10.37,2013-03-20 01:14:00,
2013-03-19 20:19:00,75.7,59.9,29.80,SE,135,3.8,3.8,58,0.00,CLR,FEW,0.00,WeatherDisplay:10.37,2013-03-20 01:19:00,
2013-03-19 20:24:00,75.2,59.9,29.80,North,0,1.2,0.0,59,0.00,CLR,FEW,0.00,WeatherDisplay:10.37,2013-03-20 01:24:00,
2013-03-19 20:29:00,74.7,59.4,29.80,SE,135,3.5,0.0,59,0.00,CLR,FEW,0.00,WeatherDisplay:10.37,2013-03-20 01:29:00,
2013-03-19 20:34:00,74.3,59.0,29.80,NE,45,5.8,0.0,59,0.00,CLR,FEW,0.00,WeatherDisplay:10.37,2013-03-20 01:34:00,
2013-03-19 20:39:00,73.8,58.5,29.81,NE,45,3.5,3.5,59,0.00,CLR,FEW,0.00,WeatherDisplay:10.37,2013-03-20 01:39:00,
2013-03-19 20:44:00,73.6,58.8,29.81,NE,45,1.2,0.0,60,0.00,CLR,FEW,0.00,WeatherDisplay:10.37,2013-03-20 01:44:00,
2013-03-19 20:49:00,73.2,58.0,29.81,East,90,2.3,2.3,59,0.00,CLR,FEW,0.00,WeatherDisplay:10.37,2013-03-20 01:49:00,
2013-03-19 20:54:00,72.9,57.7,29.81,SE,135,3.5,3.5,59,0.00,CLR,FEW,0.00,WeatherDisplay:10.37,2013-03-20 01:54:00,
2013-03-19 20:59:00,72.7,57.0,29.81,East,90,3.5,0.0,58,0.00,CLR,FEW,0.00,WeatherDisplay:10.37,2013-03-20 01:59:00,
2013-03-19 21:04:00,72.3,57.2,29.82,NE,45,3.5,3.5,59,0.00,CLR,FEW,0.00,WeatherDisplay:10.37,2013-03-20 02:04:00,
2013-03-19 21:09:00,72.0,57.3,29.83,NE,45,1.6,0.0,60,0.00,CLR,FEW,0.00,WeatherDisplay:10.37,2013-03-20 02:09:00,
2013-03-19 21:14:00,71.4,57.7,29.83,East,90,4.6,4.6,62,0.00,CLR,FEW,0.00,WeatherDisplay:10.37,2013-03-20 02:14:00,
2013-03-19 21:19:00,70.7,57.0,29.83,NE,45,2.3,0.0,62,0.00,CLR,FEW,0.00,WeatherDisplay:10.37,2013-03-20 02:19:00,
2013-03-19 21:24:00,70.2,56.1,29.83,SE,135,3.5,3.5,61,0.00,CLR,FEW,0.00,WeatherDisplay:10.37,2013-03-20 02:24:00,
2013-03-19 21:29:00,69.8,55.7,29.84,East,90,3.5,3.5,61,0.00,CLR,FEW,0.00,WeatherDisplay:10.37,2013-03-20 02:29:00,
2013-03-19 21:34:00,69.6,55.6,29.84,NE,45,2.3,0.0,61,0.00,CLR,FEW,0.00,WeatherDisplay:10.37,2013-03-20 02:34:00,
2013-03-19 21:39:00,69.4,55.4,29.86,East,90,3.5,3.5,61,0.00,CLR,FEW,0.00,WeatherDisplay:10.37,2013-03-20 02:39:00,
2013-03-19 21:44:00,69.1,56.0,29.87,North,0,2.3,2.3,63,0.00,CLR,FEW,0.00,WeatherDisplay:10.37,2013-03-20 02:44:00,
2013-03-19 21:49:00,68.7,56.0,29.88,North,0,3.5,0.0,64,0.00,CLR,FEW,0.00,WeatherDisplay:10.37,2013-03-20 02:49:00,
2013-03-19 21:54:00,68.4,56.6,29.88,North,0,3.5,3.5,66,0.00,CLR,FEW,0.00,WeatherDisplay:10.37,2013-03-20 02:54:00,
2013-03-19 21:59:00,67.6,56.7,29.89,WSW,248,3.5,0.0,68,0.00,CLR,FEW,0.00,WeatherDisplay:10.37,2013-03-20 02:59:00,
2013-03-19 22:04:00,66.9,56.8,29.87,NE,45,2.3,0.0,70,0.00,CLR,FEW,0.00,WeatherDisplay:10.37,2013-03-20 03:04:00,
2013-03-19 22:09:00,66.0,56.7,29.88,NW,315,3.5,0.0,72,0.00,CLR,FEW,0.00,WeatherDisplay:10.37,2013-03-20 03:09:00,
2013-03-19 22:14:00,65.5,57.0,29.87,East,90,1.6,0.0,74,0.00,CLR,FEW,0.00,WeatherDisplay:10.37,2013-03-20 03:14:00,
2013-03-19 22:19:00,64.6,55.7,29.89,NE,45,3.1,3.1,73,0.00,CLR,FEW,0.00,WeatherDisplay:10.37,2013-03-20 03:19:00,
2013-03-19 22:24:00,64.0,55.6,29.88,North,0,0.0,0.0,74,0.00,CLR,FEW,0.00,WeatherDisplay:10.37,2013-03-20 03:24:00,
2013-03-19 22:29:00,63.5,54.7,29.88,SE,135,3.5,3.5,73,0.00,CLR,FEW,0.00,WeatherDisplay:10.37,2013-03-20 03:29:00,
2013-03-19 22:34:00,63.1,54.7,29.88,SE,135,2.3,0.0,74,0.00,CLR,FEW,0.00,WeatherDisplay:10.37,2013-03-20 03:34:00,
2013-03-19 22:40:00,63.0,54.5,29.89,SE,135,2.3,2.3,74,0.00,CLR,FEW,0.00,WeatherDisplay:10.37,2013-03-20 03:40:00,
2013-03-19 22:45:00,62.6,54.2,29.89,SE,135,0.0,0.0,74,0.00,CLR,FEW,0.00,WeatherDisplay:10.37,2013-03-20 03:45:00,
2013-03-19 22:50:00,62.4,54.0,29.89,SE,135,1.2,0.0,74,0.00,CLR,FEW,0.00,WeatherDisplay:10.37,2013-03-20 03:50:00,
2013-03-19 22:55:00,62.2,54.2,29.90,North,0,1.6,1.6,75,0.00,CLR,FEW,0.00,WeatherDisplay:10.37,2013-03-20 03:55:00,
2013-03-19 23:00:00,62.4,54.4,29.91,North,0,3.5,3.5,75,0.00,CLR,FEW,0.00,WeatherDisplay:10.37,2013-03-20 04:00:00,
2013-03-19 23:01:00,62.6,54.6,29.91,North,0,3.5,0.0,75,0.00,CLR,FEW,0.00,WeatherDisplay:10.37,2013-03-20 04:01:00,
2013-03-19 23:02:00,62.6,54.6,29.91,North,0,2.3,0.0,75,0.00,CLR,FEW,0.00,WeatherDisplay:10.37,2013-03-20 04:02:00,
2013-03-19 23:07:00,62.4,54.0,29.91,North,0,0.0,0.0,74,0.00,CLR,FEW,0.00,WeatherDisplay:10.37,2013-03-20 04:07:00,
2013-03-19 23:11:00,62.4,54.0,29.91,North,0,0.0,0.0,74,0.00,CLR,FEW,0.00,WeatherDisplay:10.37,2013-03-20 04:11:00,
2013-03-19 23:16:00,62.6,53.8,29.92,North,0,1.6,0.0,73,0.00,CLR,FEW,0.00,WeatherDisplay:10.37,2013-03-20 04:16:00,
2013-03-19 23:21:00,63.1,55.8,29.92,NW,315,6.0,6.0,77,0.00,CLR,FEW,0.00,WeatherDisplay:10.37,2013-03-20 04:21:00,
2013-03-19 23:26:00,63.3,55.6,29.93,North,0,7.6,7.6,76,0.00,CLR,FEW,0.00,WeatherDisplay:10.37,2013-03-20 04:26:00,
2013-03-19 23:32:00,62.8,55.5,29.94,North,0,4.6,4.6,77,0.00,CLR,FEW,0.00,WeatherDisplay:10.37,2013-03-20 04:32:00,
2013-03-19 23:37:00,62.6,55.3,29.95,NW,315,5.8,5.8,77,0.00,CLR,FEW,0.00,WeatherDisplay:10.37,2013-03-20 04:37:00,
2013-03-19 23:42:00,62.4,55.1,29.95,West,270,2.2,2.2,77,0.00,CLR,FEW,0.00,WeatherDisplay:10.37,2013-03-20 04:42:00,
2013-03-19 23:47:00,62.4,55.1,29.95,North,0,5.8,5.8,77,0.00,CLR,FEW,0.00,WeatherDisplay:10.37,2013-03-20 04:47:00,
2013-03-19 23:52:00,62.6,55.6,29.96,WNW,292,6.0,6.0,78,0.00,CLR,FEW,0.00,WeatherDisplay:10.37,2013-03-20 04:52:00,
2013-03-19 23:57:00,62.8,56.2,29.96,NW,315,5.8,5.8,79,0.00,CLR,FEW,0.00,WeatherDisplay:10.37,2013-03-20 04:57:00,